Regional Weather Roundup
Issued by NWS

Home | Current Version | Previous Version | Text Only | Print | Product List | Glossary On
Versions: 1 2 3 4 5 6 7 8 9 10 11 12 13 14 15 16 17 18 19 20 21 22 23 24 25 26 27 28 29 30 31 32 33 34 35 36 37 38 39 40 41 42 43 44 45 46 47 48 49 50
000
ASUS43 KTOP 282159
RWRKS

WEATHER ROUNDUP FOR KANSAS
NATIONAL WEATHER SERVICE GOODLAND KS
500 PM CDT THU MAY 28 2015

NOTE:  "FAIR" INDICATES FEW OR NO CLOUDS BELOW 12,000 FEET WITH NO
SIGNIFICANT WEATHER AND/OR OBSTRUCTIONS TO VISIBILITY.

KSZ001>006-013>018-027>032-041>047-282300-
NORTHWEST KANSAS

CITY           SKY/WX    TMP DP  RH WIND       PRES   REMARKS
GOODLAND       CLOUDY    66  59  78 S9        29.92S
HAYS           PTSUNNY   79  63  57 SE18      29.92F
HILL CITY      PTSUNNY   75  60  59 S10G20    29.92F
RUSSELL        SUNNY     78  65  63 SE18      29.91F
$$

KSZ061>065-074>080-084>089-282300-
SOUTHWEST KANSAS

CITY           SKY/WX    TMP DP  RH WIND       PRES   REMARKS
DODGE CITY     PTSUNNY   80  58  46 SE22G29   29.90F
ELKHART          N/A    N/A N/A N/A MISG        N/A
GARDEN CITY    CLOUDY    76  60  57 S22G35    29.85F
GREAT BEND     MOSUNNY   79  64  61 SE15      29.91F
LIBERAL        CLOUDY    79  63  57 S25G33    29.89F
$$

KSZ066>073-081>083-090>101-282300-
SOUTHEAST KANSAS

CITY           SKY/WX    TMP DP  RH WIND       PRES   REMARKS
CHANUTE        CLOUDY    76  64  66 S12       29.98F
COFFEYVILLE    PTSUNNY   75  66  73 S10       29.97F
HUTCHINSON     SUNNY     79  64  60 S14       29.93F
MEDICINE LODGE   N/A     81  64  56 S10       29.91F
NEWTON         PTSUNNY   73  61  64 S8        29.97F
PARSONS        PTSUNNY   76  65  68 S12       29.99F
WICHITA INTL   MOSUNNY   80  63  55 SW10      29.94F
WICHITA JABRA  SUNNY     78  63  59 S12       29.94F
WINFIELD       SUNNY     78  65  63 S10       29.96F
$$

KSZ007>012-019>026-033>040-048>060-102>105-282300-
NORTHEAST KANSAS

CITY           SKY/WX    TMP DP  RH WIND       PRES   REMARKS
CONCORDIA      MOSUNNY   77  64  64 S12G18    29.93F
EMPORIA        PTSUNNY   77  63  61 S15       29.97F
LAWRENCE       CLOUDY    72  63  73 S7        30.00F
MANHATTAN      PTSUNNY   78  65  63 S16G25    29.92F
OLATHE IND     CLOUDY    70  63  78 S6        30.03S
OLATHE EXE     CLOUDY    70  64  81 SW6       30.02S
SALINA         MOSUNNY   77  63  61 S20       29.92F
TOPEKA BILLARD CLOUDY    73  63  70 S9        29.98F
TOPEKA FORBES  CLOUDY    74  63  68 S9        29.98F
$$


USA.gov is the U.S. government's official web portal to all federal, state and local government web resources and services.